Weather History for K0E0 - February, 2013

Change the Weather History Date:

Sunday, February 24, 2013

  Actual Average (KABQ) Record (KABQ)
Temperature  
Mean Temperature 29 °F 44 °F  
Max Temperature 37 °F 55 °F 79 °F (1904)
Min Temperature 21 °F 32 °F 11 °F (1909)
Degree Days  
Heating Degree Days 36 21  
Month to date heating degree days 578  
Since 1 July heating degree days 3220  
Cooling Degree Days 0 0  
Month to date cooling degree days 0  
Year to date cooling degree days 0  
Moisture  
Dew Point 21 °F    
Average Humidity 72    
Maximum Humidity 94    
Minimum Humidity 40    
Precipitation  
Precipitation 0.06 in 0.02 in 0.43 in (1930)
Month to date precipitation 0.41  
Year to date precipitation 0.79  
Snow  
Snow 0.00 in - - ()
Month to date snowfall  
Since 1 July snowfall  
Snow Depth -    
Sea Level Pressure  
Sea Level Pressure 29.72 in    
Wind  
Wind Speed 10 mph (WNW)    
Max Wind Speed 26 mph    
Max Gust Speed 33 mph    
Visibility 7 miles    
Events Snow    
T = Trace of Precipitation, MM = Missing Value Source: NWS Daily Summary

Daily Weather History Graph

Daily Weather History Graph

Search for Another Location

Airport or City:

Trip Planner

Search our weather history database for the weather conditions in past years. The results will help you decide how hot, cold, wet, or windy it might be!

Date:

Astronomy

Feb. 24, 2013 Rise Set
Actual Time 6:39 AM MST 5:55 PM MST
Civil Twilight 6:13 AM MST 6:21 PM MST
Nautical Twilight 5:44 AM MST 6:50 PM MST
Astronomical Twilight 5:15 AM MST 7:19 PM MST
Moon 5:09 PM MST (2/24) 5:37 AM MST (2/24)
Length of Visible Light 12h 07m
Length of Day
11h 16m
Waxing Gibbous, 99% of the Moon is Illuminated
Feb 24
Waxing Gibbous
Feb 25
Full
Mar 4
Last Quarter
Mar 11
New
Mar 19
First Quarter

Hourly Weather History & Observations

Time (MST) Temp. Windchill Dew Point Humidity Pressure Visibility Wind Dir Wind Speed Gust Speed Precip Events Conditions
12:15 AM 36.9 °F 28.7 °F 14.5 °F 40% 29.75 in 10.0 mi West 12.7 mph - N/A   Clear
12:35 AM 37.8 °F 29.8 °F 15.4 °F 40% 29.75 in 10.0 mi WSW 12.7 mph - N/A   Clear
12:55 AM 37.0 °F 27.7 °F 16.0 °F 42% 29.75 in 10.0 mi WSW 16.1 mph 20.7 mph N/A   Clear
1:15 AM 36.3 °F 27.5 °F 16.3 °F 44% 29.76 in 10.0 mi WSW 13.8 mph 20.7 mph N/A   Clear
1:35 AM 35.2 °F 29.5 °F 16.5 °F 47% 29.77 in 10.0 mi WSW 6.9 mph - N/A   Mostly Cloudy
1:55 AM 36.7 °F 29.4 °F 17.6 °F 46% 29.76 in 10.0 mi WSW 10.4 mph - N/A   Overcast
2:15 AM 35.2 °F 29.5 °F 17.6 °F 49% 29.75 in 10.0 mi West 6.9 mph - N/A   Overcast
2:35 AM 34.7 °F 29.6 °F 18.1 °F 51% 29.75 in 10.0 mi West 5.8 mph - N/A   Overcast
2:55 AM 36.0 °F 28.5 °F 19.2 °F 51% 29.75 in 10.0 mi West 10.4 mph - N/A   Overcast
3:15 AM 35.6 °F 27.5 °F 20.1 °F 53% 29.74 in 10.0 mi West 11.5 mph 20.7 mph N/A   Overcast
3:35 AM 33.3 °F 25.1 °F 19.8 °F 58% 29.74 in 10.0 mi West 10.4 mph - N/A   Mostly Cloudy
3:55 AM 32.0 °F 24.8 °F 20.3 °F 62% 29.73 in 10.0 mi West 8.1 mph - N/A   Scattered Clouds
4:15 AM 29.3 °F 20.8 °F 19.4 °F 67% 29.73 in 10.0 mi West 9.2 mph - N/A   Scattered Clouds
4:35 AM 27.3 °F 17.7 °F 19.8 °F 73% 29.73 in 10.0 mi WNW 10.4 mph - N/A   Clear
4:55 AM 28.4 °F 18.5 °F 20.1 °F 71% 29.72 in 10.0 mi West 11.5 mph - N/A   Clear
5:15 AM 28.0 °F 19.3 °F 19.8 °F 71% 29.73 in 10.0 mi West 9.2 mph - N/A   Clear
5:35 AM 24.4 °F 16.5 °F 18.0 °F 76% 29.72 in 10.0 mi NW 6.9 mph - N/A   Clear
5:55 AM 23.0 °F 13.9 °F 16.5 °F 76% 29.71 in 10.0 mi NNW 8.1 mph - N/A   Clear
6:15 AM 21.0 °F 9.9 °F 15.8 °F 80% 29.71 in 10.0 mi WNW 10.4 mph - N/A   Clear
6:35 AM 25.5 °F 15.5 °F 18.9 °F 76% 29.71 in 10.0 mi West 10.4 mph - N/A   Clear
6:55 AM 25.9 °F 14.8 °F 18.5 °F 74% 29.71 in 10.0 mi West 12.7 mph - N/A   Clear
7:15 AM 26.6 °F 16.2 °F 18.1 °F 70% 29.72 in 10.0 mi West 11.5 mph - N/A   Clear
7:35 AM 29.3 °F 20.8 °F 18.9 °F 65% 29.72 in 10.0 mi West 9.2 mph - N/A   Clear
7:55 AM 31.8 °F 25.4 °F 19.2 °F 60% 29.73 in 10.0 mi West 6.9 mph - N/A   Clear
8:15 AM 33.1 °F 26.9 °F 18.9 °F 56% 29.72 in 10.0 mi West 6.9 mph - N/A   Clear
8:35 AM 34.2 °F 29.0 °F 18.5 °F 53% 29.71 in 10.0 mi WNW 5.8 mph - N/A   Clear
8:55 AM 34.2 °F 28.2 °F 20.1 °F 57% 29.72 in 10.0 mi WNW 6.9 mph - N/A   Mostly Cloudy
9:15 AM 33.8 °F 25.8 °F 19.6 °F 56% 29.72 in 10.0 mi North 10.4 mph - N/A   Overcast
9:35 AM 32.7 °F 24.5 °F 16.9 °F 52% 29.72 in 10.0 mi North 10.4 mph - N/A   Overcast
9:55 AM 32.4 °F 23.5 °F 16.5 °F 52% 29.70 in 10.0 mi North 11.5 mph - N/A   Overcast
10:15 AM 32.2 °F 22.7 °F 16.7 °F 53% 29.70 in 10.0 mi North 12.7 mph 19.6 mph N/A   Overcast
10:35 AM 33.8 °F 26.4 °F 17.2 °F 51% 29.69 in 10.0 mi North 9.2 mph - N/A   Overcast
10:55 AM 34.0 °F 26.0 °F 18.3 °F 53% 29.69 in 10.0 mi North 10.4 mph - N/A   Overcast
11:15 AM 33.4 °F 24.3 °F 20.8 °F 60% 29.69 in 7.0 mi NNW 12.7 mph - N/A Snow Light Snow
11:35 AM 31.5 °F 22.3 °F 25.2 °F 78% 29.69 in 1.5 mi NW 11.5 mph - N/A Snow Light Snow
11:55 AM 30.2 °F 20.8 °F 27.0 °F 88% 29.69 in 1.0 mi NW 11.5 mph - N/A Snow Light Snow
12:15 PM 30.6 °F 20.7 °F 27.9 °F 90% 29.67 in 1.0 mi NW 12.7 mph - N/A Snow Light Snow
12:35 PM 29.7 °F 20.7 °F 26.8 °F 89% 29.67 in 1.8 mi NW 10.4 mph - N/A Snow Light Snow
12:55 PM 28.9 °F 21.9 °F 26.1 °F 89% 29.65 in 2.0 mi NW 6.9 mph - N/A Snow Light Snow
1:15 PM 29.8 °F 21.5 °F 27.1 °F 90% 29.64 in 1.5 mi NW 9.2 mph - N/A Snow Light Snow
1:35 PM 30.4 °F 23.6 °F 26.6 °F 86% 29.63 in 4.0 mi North 6.9 mph - N/A Snow Light Snow
1:55 PM 31.6 °F 27.0 °F 27.0 °F 83% 29.63 in 10.0 mi North 4.6 mph - N/A Snow Light Snow
2:15 PM 32.0 °F - 27.0 °F 82% 29.63 in 10.0 mi Calm Calm - N/A   Overcast
2:35 PM 32.0 °F 28.7 °F 27.0 °F 82% 29.63 in 10.0 mi ESE 3.5 mph - N/A   Overcast
2:55 PM 32.0 °F 27.5 °F 27.7 °F 84% 29.63 in 5.0 mi South 4.6 mph - N/A Snow Light Snow
3:15 PM 31.3 °F 26.6 °F 27.5 °F 86% 29.63 in 5.0 mi SSW 4.6 mph - N/A Snow Light Snow
3:35 PM 31.3 °F 24.7 °F 28.9 °F 91% 29.64 in 1.5 mi SW 6.9 mph - N/A Snow Light Snow
3:55 PM 31.8 °F 25.4 °F 29.3 °F 90% 29.64 in 2.0 mi West 6.9 mph - N/A Snow Light Snow
4:15 PM 32.4 °F - 27.7 °F 83% 29.64 in 10.0 mi Calm Calm - N/A Snow Light Snow
4:35 PM 32.9 °F - 26.1 °F 76% 29.65 in 10.0 mi Calm Calm - N/A   Mostly Cloudy
4:55 PM 33.1 °F - 26.2 °F 76% 29.64 in 10.0 mi Calm Calm - N/A   Mostly Cloudy
5:15 PM 32.9 °F 28.5 °F 27.0 °F 79% 29.65 in 10.0 mi North 4.6 mph - N/A   Overcast
5:35 PM 32.4 °F 22.5 °F 21.2 °F 63% 29.65 in 10.0 mi NW 13.8 mph 18.4 mph N/A   Overcast
5:55 PM 31.5 °F 20.5 °F 16.9 °F 55% 29.66 in 10.0 mi NW 16.1 mph 27.6 mph N/A   Overcast
6:15 PM 30.9 °F 21.7 °F 19.2 °F 62% 29.67 in 10.0 mi NW 11.5 mph 20.7 mph N/A   Overcast
6:35 PM 30.2 °F 16.8 °F 16.2 °F 56% 29.69 in 10.0 mi NW 23.0 mph 29.9 mph N/A   Overcast
6:55 PM 29.1 °F 14.5 °F 18.1 °F 64% 29.71 in 7.0 mi NW 26.5 mph 33.4 mph N/A Snow Light Snow
7:15 PM 28.2 °F 16.3 °F 18.3 °F 66% 29.74 in 7.0 mi NW 16.1 mph 25.3 mph N/A   Overcast
7:35 PM 25.7 °F 14.0 °F 22.1 °F 86% 29.75 in 1.5 mi NW 13.8 mph 18.4 mph N/A Snow Light Snow
7:55 PM 25.5 °F 12.9 °F 23.0 °F 90% 29.76 in 0.8 mi NW 16.1 mph 21.9 mph N/A Snow Snow
8:15 PM 24.8 °F 13.4 °F 23.0 °F 93% 29.76 in 0.2 mi NW 12.7 mph - 0.01 in Snow Heavy Snow
8:35 PM 25.3 °F 13.6 °F 23.7 °F 94% 29.78 in 0.5 mi NW 13.8 mph - 0.02 in Snow Heavy Snow
8:55 PM 26.1 °F 21.9 °F 24.3 °F 93% 29.79 in 0.5 mi NE 3.5 mph - 0.04 in Snow Heavy Snow
9:15 PM 25.7 °F 15.7 °F 23.7 °F 92% 29.79 in 0.5 mi West 10.4 mph - 0.01 in Snow Heavy Snow
9:35 PM 24.8 °F 15.3 °F 23.0 °F 93% 29.80 in 0.5 mi NW 9.2 mph - 0.02 in Snow Heavy Snow
9:55 PM 24.6 °F 11.7 °F 22.6 °F 92% 29.80 in 0.8 mi WNW 16.1 mph 19.6 mph 0.02 in Snow Snow
10:15 PM 24.6 °F 11.3 °F 22.6 °F 92% 29.81 in 0.5 mi WNW 17.3 mph 21.9 mph N/A Snow Snow
10:35 PM 24.8 °F 14.6 °F 22.8 °F 92% 29.82 in 0.8 mi WNW 10.4 mph - N/A Snow Snow
10:55 PM 24.4 °F 14.9 °F 22.6 °F 93% 29.82 in 0.8 mi West 9.2 mph - N/A Snow Snow
11:15 PM 24.8 °F 15.3 °F 23.0 °F 93% 29.83 in 1.0 mi WNW 9.2 mph - N/A Snow Snow
11:35 PM 24.8 °F 15.3 °F 23.0 °F 93% 29.84 in 2.0 mi NW 9.2 mph - N/A Snow Light Snow
11:55 PM 25.5 °F 14.9 °F 23.4 °F 92% 29.84 in 2.5 mi NW 11.5 mph - N/A Snow Light Snow